📊 Raw Sensor Data
Showing records 48051 to 48075 of 85,095 total
| ID | Distance (ft) | Battery V | Battery A | Int Temp (°F) | Int Humid (%) | Ext Temp (°F) | Solar V | RSSI | SNR | Time Stamp |
|---|---|---|---|---|---|---|---|---|---|---|
| 37057 | -- | 3.86 | 0 | 84 | 39 | 77 | 5.10 | -77 | 9 | 04/06/2025 01:45 PM |
| 37056 | -- | 3.98 | 0 | 84 | 38 | 77 | 5.10 | -76 | 9 | 04/06/2025 01:30 PM |
| 37055 | -- | 3.86 | 0 | 83 | 38 | 75 | 5.10 | -76 | 9 | 04/06/2025 01:15 PM |
| 37054 | -- | 3.86 | 0 | 81 | 39 | 75 | 5.10 | -77 | 8 | 04/06/2025 01:01 PM |
| 37053 | -- | 3.87 | 0 | 80 | 39 | 75 | 5.10 | -76 | 9 | 04/06/2025 12:45 PM |
| 37052 | -- | 3.86 | 0 | 79 | 39 | 74 | 5.10 | -76 | 8 | 04/06/2025 12:30 PM |
| 37051 | -- | 3.86 | 0 | 78 | 39 | 75 | 5.10 | -76 | 9 | 04/06/2025 12:15 PM |
| 37050 | -- | 3.86 | 0 | 78 | 38 | 72 | 5.10 | -76 | 9 | 04/06/2025 12:00 PM |
| 37049 | -- | 3.86 | 0 | 77 | 38 | 74 | 5.10 | -76 | 9 | 04/06/2025 11:45 AM |
| 37048 | -- | 3.86 | 0 | 75 | 38 | 73 | 5.10 | -76 | 8 | 04/06/2025 11:30 AM |
| 37047 | -- | 3.86 | 0 | 73 | 38 | 71 | 5.10 | -76 | 9 | 04/06/2025 11:15 AM |
| 37046 | -- | 3.86 | 0 | 72 | 38 | 72 | 5.10 | -77 | 8 | 04/06/2025 11:00 AM |
| 37045 | -- | 3.86 | 0 | 70 | 38 | 67 | 5.10 | -76 | 9 | 04/06/2025 10:45 AM |
| 37044 | -- | 3.86 | 0 | 68 | 38 | 69 | 5.10 | -76 | 9 | 04/06/2025 10:30 AM |
| 37043 | -- | 3.86 | 0 | 67 | 37 | 66 | 5.10 | -76 | 8 | 04/06/2025 10:15 AM |
| 37042 | -- | 3.86 | 0 | 65 | 37 | 67 | 5.10 | -77 | 8 | 04/06/2025 10:00 AM |
| 37041 | -- | 3.86 | 0 | 63 | 37 | 69 | 5.10 | -77 | 8 | 04/06/2025 09:45 AM |
| 37040 | -- | 3.86 | 0 | 61 | 37 | 67 | 5.10 | -78 | 8 | 04/06/2025 09:30 AM |
| 37039 | -- | 3.86 | 0 | 59 | 37 | 64 | 5.10 | -78 | 8 | 04/06/2025 09:15 AM |
| 37038 | -- | 3.86 | 0 | 58 | 36 | 64 | 5.10 | -80 | 8 | 04/06/2025 09:00 AM |
| 37037 | -- | 3.90 | 0 | 55 | 36 | 62 | 5.10 | -78 | 8 | 04/06/2025 08:45 AM |
| 37036 | -- | 3.86 | 0 | 53 | 36 | 62 | 5.10 | -77 | 8 | 04/06/2025 08:30 AM |
| 37035 | -- | 4.07 | 0 | 50 | 37 | 60 | 5.10 | -79 | 9 | 04/06/2025 08:15 AM |
| 37034 | -- | 3.86 | 0 | 47 | 38 | 59 | 5.10 | -76 | 9 | 04/06/2025 08:00 AM |
| 37033 | -- | 3.86 | 0 | 45 | 38 | 55 | 5.10 | -78 | 8 | 04/06/2025 07:45 AM |